Lapse_Rate
7.1 6.9 6.7 6.4 6.3 6.4 6.7 6.7 7.0 7.6 7.7 7.9 8.0 8.0 8.2 8.1 7.8 6.8 6.9 6.7 6.2 5.5 5.9 5.1 4.9 5.0 6.0 6.0 5.7 5.7 5.8 6.0 6.1 6.4 6.7 6.8 6.7 6.7 6.7 6.7 6.6 6.6 6.6 6.7
7.4 7.0 6.9 6.8 6.9 6.8 6.9 6.8 7.0 7.7 7.9 8.1 8.3 8.1 8.2 8.4 8.0 7.4 7.0 6.5 6.2 6.2 6.5 5.8 5.6 4.9 4.8 5.1 5.7 5.8 5.8 6.0 6.0 6.0 6.1 6.2 6.2 6.1 6.2 6.3 6.3 6.5 6.7 6.6
7.4 7.1 7.0 7.0 7.2 7.4 6.9 6.6 7.0 7.1 7.9 8.1 8.1 7.9 8.3 8.1 8.0 7.9 7.2 6.5 6.2 6.2 6.5 5.9 6.2 4.6 4.9 4.6 5.3 5.9 5.5 5.8 5.9 5.8 5.8 5.9 6.0 6.1 6.4 6.7 6.7 6.7 6.5 6.4
7.4 7.2 7.0 7.2 7.2 7.0 6.8 7.0 7.3 7.4 7.9 7.8 8.0 7.4 8.0 8.0 7.7 7.5 7.5 6.8 6.3 6.1 5.6 6.4 6.0 5.4 5.1 4.5 4.0 4.7 5.3 5.3 5.4 5.6 5.7 5.7 6.0 6.1 6.2 6.1 6.1 6.2 6.3 6.4
7.4 7.6 7.4 7.0 6.7 6.9 6.9 7.4 7.3 7.6 7.7 7.9 7.9 8.0 7.8 7.8 7.6 7.4 7.2 6.9 6.8 6.5 5.9 6.2 6.0 5.9 5.5 4.8 4.4 4.5 5.2 5.3 5.4 5.2 5.6 5.7 5.9 6.2 6.2 6.3 6.3 6.3 6.5 6.5
7.4 7.3 7.0 6.6 6.8 6.7 7.2 7.5 7.3 7.5 7.7 6.8 7.2 7.4 7.6 7.5 7.2 7.3 7.0 6.9 7.2 6.9 6.1 6.0 6.5 6.3 5.6 5.4 4.8 5.0 4.8 5.2 4.9 5.2 5.4 5.6 5.8 5.8 5.8 5.9 6.1 6.3 6.5 6.5
7.6 7.2 6.9 6.5 7.1 6.7 7.2 7.5 6.2 6.1 5.8 5.7 7.3 7.6 7.3 7.3 7.3 7.0 6.8 6.7 6.6 6.6 6.3 6.4 6.6 6.1 6.3 5.8 5.7 5.1 4.9 5.0 4.8 5.2 5.2 5.3 5.8 5.9 5.9 5.6 5.7 5.8 6.2 6.4
6.4 7.1 6.8 6.4 5.8 5.9 5.8 6.1 5.8 5.6 5.2 5.2 6.9 7.1 7.3 7.2 7.1 6.8 6.5 6.3 6.1 5.9 5.9 6.0 6.5 6.0 5.8 5.7 5.2 5.4 5.4 5.4 5.0 5.0 5.3 5.3 5.1 5.4 5.6 5.6 5.7 6.4 6.2 6.2
6.0 6.9 6.9 6.6 6.4 5.8 6.0 5.7 5.9 5.8 5.5 5.1 6.3 6.8 7.0 7.0 6.8 6.5 6.4 6.3 6.2 5.9 5.6 5.6 5.5 5.6 5.7 6.0 5.7 5.1 5.4 5.3 5.1 5.5 5.4 5.4 5.2 5.4 5.5 5.7 5.6 5.6 5.7 6.1
6.1 5.9 7.0 6.4 6.5 6.1 5.9 5.7 5.8 5.8 5.0 5.0 5.6 6.1 6.8 6.5 6.6 6.4 6.5 6.6 6.6 6.5 6.2 5.5 5.6 5.9 6.1 5.9 5.6 5.8 5.6 5.5 5.1 5.0 4.8 5.5 5.4 5.3 5.5 5.5 5.7 5.4 5.7 5.4
6.3 5.8 6.8 6.6 5.9 6.1 5.7 5.5 5.5 5.3 5.3 4.6 4.2 5.8 6.2 6.1 6.2 5.8 5.8 6.1 6.3 6.3 6.3 6.2 5.6 5.7 5.9 5.7 5.8 6.0 6.0 5.7 5.6 5.4 5.1 4.8 4.8 4.8 5.8 5.6 5.3 5.1 5.1 5.3
6.1 5.6 5.7 6.3 6.0 5.8 5.9 5.0 5.1 5.0 5.0 5.2 5.0 5.5 6.1 6.0 5.6 5.6 5.9 6.0 5.9 6.0 6.0 6.1 6.0 5.9 5.9 5.8 5.6 5.7 5.8 6.0 6.0 5.8 5.8 5.7 5.4 5.1 4.9 5.7 5.3 5.9 5.5 5.7
5.5 5.5 5.4 6.1 6.0 5.6 5.6 5.1 4.9 4.6 4.8 4.8 4.7 5.6 5.6 5.0 6.0 6.1 5.7 5.7 5.8 5.8 5.9 6.1 6.0 5.6 5.4 5.5 5.6 5.8 5.8 5.9 6.2 6.2 6.2 6.2 5.9 5.9 5.8 5.5 5.2 5.2 5.8 5.5
5.3 5.6 5.8 5.8 6.0 5.1 5.3 5.3 5.1 4.8 4.5 4.6 4.9 5.4 4.9 5.0 5.3 6.1 6.0 5.8 5.9 5.6 5.4 5.3 5.3 5.4 5.4 5.1 4.9 5.1 5.3 5.8 6.0 6.2 6.3 6.3 6.3 6.2 6.0 6.2 6.1 5.9 5.8 5.7
5.2 5.7 5.5 5.5 5.7 5.3 5.4 5.9 5.4 5.2 5.1 4.5 5.2 4.8 4.5 4.8 4.8 5.4 5.6 5.5 5.7 5.6 5.3 5.3 5.3 5.2 5.2 5.3 5.4 5.4 5.3 5.3 5.3 5.6 5.9 6.3 6.4 6.3 6.3 6.2 6.2 6.4 6.2 6.4
5.2 5.3 5.1 5.3 5.5 5.4 5.8 5.9 5.7 5.5 5.5 5.5 5.5 5.4 5.2 4.6 4.7 5.2 5.4 5.2 5.1 4.9 4.8 5.0 5.3 5.4 5.5 5.2 5.1 5.2 5.3 5.3 5.4 5.4 5.4 5.6 5.8 6.1 6.3 6.5 6.6 6.5 6.7 6.3
5.0 4.6 4.6 4.9 4.9 5.2 5.9 5.7 6.1 5.7 5.6 5.4 4.4 4.9 5.1 4.7 4.5 5.1 5.6 5.5 5.2 4.8 4.5 4.6 4.9 5.0 5.0 5.0 5.0 4.9 4.8 4.8 5.0 5.2 5.3 5.3 5.5 5.8 6.1 6.3 6.6 6.8 6.8 6.8
5.4 5.0 4.3 4.6 5.1 4.5 5.2 5.6 5.7 5.5 4.9 4.7 4.8 4.4 4.4 5.0 5.3 4.2 4.4 4.3 4.5 4.5 4.4 4.2 4.3 4.4 4.6 4.8 4.7 4.9 5.1 5.1 5.0 5.1 5.3 5.3 5.4 5.5 5.6 5.9 6.2 6.5 6.7 6.7
5.7 5.4 4.6 4.8 4.6 5.6 5.6 5.4 5.5 5.0 4.8 4.7 4.6 4.4 4.4 4.5 4.6 5.2 4.7 4.2 4.1 4.4 4.4 4.3 4.4 4.8 5.0 5.3 5.2 5.0 5.4 5.6 5.6 5.8 5.6 5.4 5.7 5.8 5.8 5.8 5.7 6.0 6.0 6.0
6.1 6.0 5.3 4.9 4.9 4.6 5.3 5.0 5.0 4.7 3.9 4.6 4.4 4.2 4.4 4.5 4.5 5.3 5.8 5.6 5.5 5.2 4.7 4.4 4.5 4.4 4.7 5.0 5.1 5.1 5.1 5.2 5.5 5.8 5.8 5.6 5.8 5.9 6.1 6.0 5.7 5.6 5.9 5.4
5.4 5.2 4.9 5.1 4.5 4.8 5.0 5.8 5.7 4.9 4.5 3.9 3.8 3.8 3.7 3.7 3.7 3.7 4.3 5.2 5.5 5.6 5.8 5.4 5.1 4.9 5.0 5.1 5.2 5.1 5.4 5.6 5.7 5.7 5.9 6.0 6.0 6.0 6.0 6.1 5.9 5.6 5.7 5.3
4.7 4.7 4.4 4.3 4.4 4.1 4.5 4.4 4.8 4.6 4.1 3.9 4.2 4.3 4.2 4.2 4.2 4.1 3.9 3.9 3.9 4.3 5.1 5.2 4.9 5.1 5.1 4.8 4.7 4.7 4.6 4.9 5.0 5.0 5.1 5.5 5.8 5.9 6.0 6.0 5.8 5.6 5.2 5.4
4.3 4.5 4.6 4.5 4.8 4.5 4.4 4.3 4.0 3.8 3.8 3.9 4.1 4.3 4.3 4.4 4.5 4.3 4.2 4.2 4.2 4.1 4.0 4.4 5.0 5.1 5.3 5.3 5.3 4.7 4.7 4.8 4.8 4.7 4.6 4.7 4.9 5.2 5.7 5.8 5.5 5.4 5.6 5.7
3.7 3.8 3.9 4.0 4.0 4.1 3.9 3.9 3.8 3.7 3.7 4.0 4.4 4.5 4.7 4.7 4.4 4.3 4.3 4.4 4.4 4.4 4.5 4.5 4.6 4.8 5.1 5.2 5.3 5.3 5.0 4.8 4.5 4.3 4.5 4.6 4.6 4.8 5.1 5.6 5.6 5.6 5.6 5.6
3.4 3.6 3.8 3.9 4.0 4.0 4.0 4.1 4.2 4.4 4.3 4.4 4.4 4.3 4.3 4.5 4.7 4.7 4.7 4.9 5.0 5.1 5.3 5.3 5.3 5.6 5.8 6.0 6.4 6.6 6.2 5.6 5.4 4.8 4.5 4.6 4.6 4.5 5.0 5.3 5.3 5.4 5.4 5.6
3.5 3.7 3.7 3.7 4.0 4.2 4.5 4.8 4.9 5.0 5.0 5.1 5.1 5.1 5.2 5.5 5.7 6.0 6.2 6.5 6.5 6.4 6.4 6.3 6.1 6.1 6.2 6.5 6.9 7.3 7.2 6.7 6.3 6.0 5.5 5.8 5.8 5.3 5.1 5.4 5.3 5.6 5.7 5.7
Wind_Speed
4 5 4 8 4 6 5 4 6 7 2 6 2 5 7 5 2 4 5 5 3 7 5 10 10 7 10 10 12 14 11 7 6 3 3 3 4 3 3 7 14 16 17 17
6 3 4 7 4 4 4 4 7 9 4 1 6 8 4 4 1 2 5 5 6 7 8 13 12 8 1 4 7 7 9 9 7 5 3 3 3 2 2 5 10 15 16 17
3 5 7 5 5 8 5 4 5 5 9 1 6 5 6 3 5 2 3 1 7 11 10 11 16 9 5 7 7 4 6 8 7 6 4 3 4 3 2 2 3 7 16 18
5 4 5 7 4 2 5 1 5 6 5 3 6 3 6 6 1 2 3 2 2 10 8 8 14 18 13 14 14 7 8 8 7 8 7 6 5 4 4 4 4 5 14 14
5 7 7 5 6 2 8 7 3 2 2 3 11 5 6 4 8 6 4 6 4 5 9 9 10 11 13 11 13 10 4 7 7 8 9 8 6 5 3 2 5 5 5 11
5 5 2 3 7 3 11 4 4 3 2 4 5 3 6 4 4 6 5 7 4 6 6 8 8 9 10 10 7 7 11 7 6 7 7 8 7 5 4 4 5 4 4 4
7 5 6 3 7 6 10 8 4 6 5 2 5 4 5 6 4 3 6 8 8 5 6 9 12 10 10 10 10 7 9 11 10 8 8 8 7 7 8 7 7 7 5 4
4 9 7 7 2 3 4 3 3 1 3 5 7 5 4 4 5 5 7 5 7 5 3 5 6 9 9 9 8 7 8 8 9 12 10 10 9 6 7 8 6 7 7 7
4 6 5 1 2 2 5 5 1 2 1 2 4 5 7 4 5 6 8 9 9 7 1 4 7 6 7 7 11 9 6 7 9 11 11 13 12 12 11 11 9 7 9 6
1 5 1 6 2 2 3 2 4 4 4 5 5 5 4 4 6 7 9 10 9 7 8 6 5 6 6 7 5 6 8 9 9 9 10 11 12 12 12 11 12 11 10 9
2 2 7 4 4 2 5 3 5 4 3 2 4 6 4 3 6 8 8 10 10 10 8 7 7 4 4 3 4 5 5 6 7 6 8 9 9 11 11 11 11 12 11 9
1 3 4 7 2 2 1 1 4 3 5 1 2 5 4 4 8 7 13 9 10 9 8 7 7 4 4 3 4 5 4 5 6 6 6 8 9 9 9 11 11 12 12 11
2 1 5 9 4 3 1 0 4 4 3 5 3 5 1 12 20 20 12 10 10 9 10 9 7 7 7 6 5 5 5 6 6 6 6 7 8 9 12 12 12 10 10 10
3 3 7 6 10 0 6 3 3 5 3 3 7 9 12 12 16 20 20 12 8 8 9 9 10 10 8 8 7 6 6 5 6 6 6 8 8 11 12 12 12 11 11 10
3 5 5 6 9 5 9 13 5 8 6 5 4 3 7 14 15 13 13 15 15 15 14 11 8 8 8 8 8 8 6 6 6 7 6 7 7 6 6 7 8 9 9 10
1 4 1 4 9 8 8 14 8 7 4 8 11 1 10 9 12 12 14 17 17 17 17 17 16 15 13 8 7 7 7 6 4 6 7 7 6 5 6 6 7 8 8 9
3 2 3 4 3 7 6 1 4 6 9 3 4 6 13 15 18 14 11 14 15 16 17 18 17 15 14 13 7 10 8 6 7 7 6 6 6 6 6 5 6 9 11 11
5 6 4 4 1 2 2 11 12 16 9 10 8 10 11 14 16 15 6 19 20 19 18 19 16 17 18 17 15 9 7 6 6 7 6 6 6 6 5 5 7 7 8 11
8 4 2 3 3 5 7 4 4 5 5 10 11 11 12 15 14 5 14 17 16 17 18 17 15 16 18 17 15 14 16 9 6 10 7 7 6 6 6 7 7 6 6 7
6 3 3 1 3 5 3 6 6 4 5 11 10 10 14 16 9 9 22 22 22 18 18 20 22 20 17 17 16 14 14 13 13 12 10 7 7 7 9 8 7 5 6 7
3 1 5 4 4 2 8 14 9 4 3 12 10 12 13 10 10 19 21 24 21 20 22 21 18 18 20 19 19 19 16 15 14 12 9 8 8 9 7 6 5 7 7 7
2 2 3 1 3 7 13 4 5 6 9 12 13 13 13 13 16 17 18 18 19 23 26 22 19 19 19 18 18 20 19 17 16 11 11 10 9 8 6 9 6 7 8 9
2 2 2 2 1 6 10 10 5 6 8 9 9 11 12 13 15 18 18 20 19 20 18 20 21 22 18 17 17 20 20 19 18 14 12 11 8 8 8 9 9 7 9 9
2 3 1 3 5 4 9 8 6 7 6 9 9 11 13 13 15 15 15 17 17 17 18 18 19 20 23 21 20 20 20 18 19 16 15 9 8 9 8 7 8 8 8 8
1 4 1 3 4 5 4 10 7 7 5 6 9 8 11 13 14 15 14 15 15 16 18 19 20 20 22 22 22 22 20 19 18 14 13 10 9 11 9 9 9 9 9 10
2 1 2 1 3 2 3 5 8 6 8 8 8 9 8 9 12 15 13 13 14 16 16 17 19 19 21 20 20 19 18 18 17 13 7 8 7 8 7 7 4 8 12 14
Wind_Direction
348 41 331 295 238 246 255 261 282 296 272 360 265 265 274 241 191 196 238 230 204 155 180 152 171 185 233 167 160 171 161 168 147 135 137 142 168 161 184 193 182 180 181 180
7 312 276 289 263 320 293 298 315 299 270 319 340 293 306 205 311 184 217 223 218 171 152 125 110 89 6 349 157 164 174 164 171 158 140 143 148 164 167 192 197 188 182 181
216 267 328 351 327 352 329 247 293 263 315 45 352 0 1 344 17 43 6 262 166 150 156 128 117 122 159 224 301 196 197 167 160 146 120 87 78 66 119 195 203 202 191 187
250 303 335 327 321 41 312 170 289 301 16 340 24 350 359 348 26 267 261 306 253 162 157 156 149 164 183 206 220 203 183 178 178 164 165 165 176 169 198 183 188 198 197 193
280 336 349 337 301 358 255 331 304 322 63 30 354 64 298 356 24 11 330 284 237 148 171 164 168 173 191 211 214 203 219 188 175 191 193 192 189 193 147 152 187 199 200 200
261 289 293 272 311 283 293 0 42 41 44 37 318 82 332 8 299 330 356 347 298 167 182 182 187 183 205 211 211 204 182 185 193 189 205 205 205 177 164 184 189 196 200 202
331 319 325 357 344 354 12 29 357 10 12 247 332 52 247 307 328 322 335 360 5 157 168 186 199 199 207 210 208 197 207 207 179 197 206 211 210 183 197 195 202 188 198 212
21 334 10 345 54 303 339 63 112 322 344 294 337 5 299 300 320 336 22 15 55 42 317 258 221 220 227 229 224 187 203 209 218 188 209 216 216 206 205 205 199 208 207 213
6 287 314 338 352 76 329 32 199 103 311 346 302 311 318 351 11 23 24 19 356 348 346 243 253 249 238 235 238 234 209 206 202 210 214 220 215 213 214 213 207 212 206 193
236 303 306 294 19 20 84 196 19 12 24 336 320 301 246 346 341 353 9 9 335 326 325 313 267 273 253 240 222 208 227 227 221 215 220 219 216 216 216 211 207 210 218 207
122 123 290 351 37 315 346 28 50 108 97 81 328 285 224 346 41 6 335 338 316 322 310 315 309 278 268 281 280 275 263 261 259 231 217 220 222 225 220 220 216 210 209 199
2 148 297 270 290 258 267 85 99 90 306 91 182 275 337 67 342 335 318 320 316 317 311 326 339 338 320 315 305 295 266 250 260 267 243 232 223 209 213 220 226 221 207 201
179 323 334 338 2 12 89 210 111 95 70 211 171 260 244 5 354 340 330 313 310 320 333 338 2 2 349 334 303 290 290 281 275 267 248 238 229 223 222 221 219 215 201 186
147 179 179 208 263 250 298 256 190 137 166 222 231 274 338 351 348 344 340 331 304 336 352 355 0 355 351 348 336 317 301 297 299 295 274 253 233 224 221 221 218 209 212 200
144 246 172 249 274 264 267 272 225 192 205 213 242 153 353 349 344 341 353 12 21 18 12 2 351 342 341 343 335 333 316 302 299 293 287 268 259 244 233 224 211 205 192 194
26 270 116 253 253 273 273 283 251 222 221 243 272 302 357 339 341 360 10 15 13 4 357 353 351 349 344 334 320 312 301 289 286 288 286 293 285 264 235 214 201 190 190 181
192 200 11 287 353 309 298 91 115 100 51 326 53 358 342 346 343 338 358 17 4 351 346 343 340 339 335 328 313 317 305 297 294 287 285 280 277 252 238 216 198 195 190 182
197 152 166 248 11 286 37 55 97 104 73 37 29 360 342 326 319 296 19 16 349 342 339 335 334 333 330 325 323 314 308 291 279 272 272 278 274 265 233 200 214 201 191 188
198 133 221 219 211 302 143 38 21 48 81 32 357 340 333 340 320 282 22 355 333 328 327 322 322 318 317 316 321 325 323 305 282 272 252 248 236 237 224 215 195 193 180 183
107 93 144 154 223 241 33 327 316 261 190 10 352 341 345 342 334 309 333 332 329 326 324 323 320 316 313 311 315 310 303 303 289 279 257 239 221 218 217 211 192 181 185 177
103 101 217 239 263 272 336 313 305 196 344 338 343 339 337 331 304 312 321 324 326 323 324 321 315 312 313 315 313 307 302 292 287 286 249 236 220 212 207 191 178 169 161 156
153 171 214 186 267 261 346 20 44 333 327 336 337 337 328 318 314 320 323 322 322 324 326 324 317 313 311 310 309 301 297 298 290 281 254 234 220 206 191 176 168 167 164 166
218 256 204 204 48 92 54 87 42 340 325 334 330 336 325 326 332 329 327 328 327 325 320 321 320 316 314 309 302 299 298 299 293 289 264 244 211 201 182 177 174 174 177 178
106 354 206 193 159 115 92 78 38 351 341 334 334 333 339 332 330 327 323 326 326 322 322 325 323 320 319 318 310 298 297 297 288 285 276 237 201 198 187 183 184 185 186 184
355 339 356 273 23 360 162 56 31 353 350 341 342 345 340 335 333 332 326 327 325 324 332 331 327 324 320 319 314 314 303 294 291 284 266 225 203 202 197 196 189 194 195 189
345 192 158 223 29 232 278 11 8 353 356 347 345 338 342 339 333 332 331 328 324 331 329 329 326 323 323 320 319 312 313 305 286 277 257 229 204 191 189 177 142 163 153 150